{"data":{"norad_id":63081,"epoch":"2026-09-21T21:41:40.416864Z","epoch_age_seconds":41025,"freshness":"FRESH","line1":"1 63081U 25037E   26264.90394001  .00003011  00000+0  10915-3 0  9994","line2":"2 63081  70.0014 217.3182 0005358 312.2130  47.8589 15.29572332 87914","mean_motion":15.29572332,"eccentricity":0.0005358,"inclination_deg":70.0014,"raan_deg":217.3182,"arg_perigee_deg":312.213,"mean_anomaly_deg":47.8589,"bstar":0.00010915,"rev_number":8791,"period_min":94.14396232685,"perigee_km":473.41678324685,"apogee_km":480.76284430049,"semimajor_km":6855.2268137737,"source":"CELESTRAK","updated_at":"2026-09-22T09:00:49.757719Z"}}